Showing default

OV1-2, 1613

Orbit data source: Space-Track

OV1-2, 1613 is a payload satellite owned by USAF OAR (US) in LEO that was launched on Tue, 05 Oct 1965 UTC via an ATLAS D launch vehicle from the Air Force Western Test Range (AFWTR). Payloads include a variety of satellites, spacecraft, and rockets equipped with specific instruments for various scientific and technological missions. These include communications satellites like Starlink; space stations such as the ISS; scientific satellites like the Hubble; Earth observation satellites from companies like Planet Labs, Umbra, and HawkEye 360; GPS; miniature CubeSats for education and research; and military/defense satellites.

Loading next visibility...
OV1-2 details
Identifier
1613, 1965-078A
Orbit
LEO
Last TLE update9 hours ago
Origin
Flag of USUSAF OAR (US)
ManufacturerGD/Convair
MissionCivil Science
Bus & MotorOV1, Unknown motor
Mass86 kg wet, 86 kg dry
Launch date (UTC)
1965-10-05 (59 years ago)
Launch vehicle
ATLAS D
Launch site
Air Force Western Test Range (AFWTR)
Object type
Payload
Rocket body
Debris
Shape & HBRDomed Cyl, 1.4 m
Radar Cross Section0.946 m², Medium (>0.1 m² and < 1m²)

Expand to show TLE details & history

TLE from 9 hours ago
0 OV1-2
1 01613U 65078A   25015.58703234  .00006757  00000-0  66368-3 0  9999
2 01613 144.2278 256.4617 1156190  20.3397 343.9859 12.94833039647425
Epoch: 2025-01-15T14:05Z
Definitive object data (Epoch: 2025-01-15T14:05:19.594Z)
Latitude0.00003°
Longitude-70.14722°
Altitude439.667 km
Speed8.058 km/s
True Right ascension17h 05m 50s
True Declination0° 00' 00"
Sunlit
Object was in daylight at TLE epoch
Visualization TLE readout
Latitude-2.09675°
Longitude-65.56411°
Altitude469.206 km
Speed8.027 km/s
Apparent Right ascension15h 15m 03s
Apparent Declination-25° 31' 23"
Sunlit
Object is in daylight
Visualization observer readout
Local Sidereal Time00:02:03
Azimuth274.681° WNW
Elevation-47.509°
Doppler factor1
Orbital elements
Apogee altitude2,171.302 km
Perigee altitude399.232 km
Semi-major axis7,663.404 km
Eccentricity0.115619
Inclination144.2278°
RAAN256.4617°
Arg. of periapsis20.3397°
True anomaly339.74967°
Mean anomaly343.9859°
Eccentric anomaly341.93127°
Mean motion3.23527 °/min
BSTAR0.00066368
Orbital period111.27 mins
Loading maneuver chart data...
Loading historical data...
Loading historical data...
Loading historical data...
Loading historical data...
Loading historical data...
Loading historical data...
Loading historical data...
Other satellites on launch #78 in the year 1965 (1965-10-05 UTC)

OV1-2 Visibility forecast

Observer location: undefined°, undefined

Span
Click to sort rows by Start time (UTC) header in descending order
Start Az.
Max El. time (UTC)
Max El. Az.
Max El.
End time (UTC)
End Az.
10 mins2025-01-16 05:29:54.598Z116.799° SE2025-01-16 05:34:54.598Z154.138° SSE16.094°2025-01-16 05:39:54.598Z185.094° SSW
12 mins2025-01-16 07:14:54.598Z109.135° ESE2025-01-16 07:18:54.598Z158.489° S29.093°2025-01-16 07:26:54.598Z220.901° SW
10 mins2025-01-16 09:00:54.598Z106.351° ESE2025-01-16 09:03:54.598Z169.687° S38.296°2025-01-16 09:10:54.598Z245.073° WSW
8 mins2025-01-16 10:46:54.598Z115.124° SE2025-01-16 10:48:54.598Z162.954° S39.061°2025-01-16 10:54:54.598Z261.995° W
5 mins2025-01-16 12:33:54.598Z162.292° S2025-01-16 12:34:54.598Z190.167° SSW26.359°2025-01-16 12:38:54.598Z261.398° W
|